Latest Weather Observations for Gabo Island

IDN60801

Issued at 1:35 pm EDT Wednesday 26 November 2014 (issued every 30 minutes, with the page automatically refreshed every 10 minutes)

About weather observations | Map of weather stations | Latest weather observations for NSW | Other Formats
Station Details ID: 084016 Name: GABO ISLAND LIGHTHOUSE Lat: -37.57 Lon: 149.92 Height: 15.2 m
Data from the previous 72 hours. | See also: Recent months at Gabo Island
Date/Time
EDT
Temp
°C
App
Temp
°C
Dew
Point
Rel
Hum
%
Delta-T
°C
Wind Press
QNH
hPa
Press
MSL
hPa
Rain
since 9 am
mm
Dir
 
Spd
km/h
Gust
km/h
Spd
kts
Gust
kts
26/01:30pm 16.8 6.8 9.3 61 3.9 SSW 52 59 28 32 1018.7 - 0.0
26/01:00pm 16.6 7.0 9.5 63 3.7 SSW 50 57 27 31 1018.8 - 0.0
26/12:30pm 16.5 8.2 10.2 66 3.3 SSW 44 54 24 29 1019.0 - 0.0
26/12:00pm 16.5 8.5 10.5 67 3.2 SSW 43 52 23 28 1019.1 1019.1 0.0
26/11:30am 16.4 9.1 10.3 67 3.2 SSW 39 44 21 24 1019.2 - 0.0
26/11:00am 16.5 10.0 10.5 67 3.2 SSW 35 43 19 23 1019.4 - 0.0
26/10:30am 16.5 10.3 10.2 66 3.3 SW 33 41 18 22 1019.4 - 0.0
26/10:00am 16.4 11.9 9.9 65 3.4 SW 24 30 13 16 1019.6 - 0.0
26/09:30am 16.7 13.7 9.4 62 3.8 WSW 15 17 8 9 1019.9 - 0.0
26/09:00am 16.2 12.9 9.4 64 3.5 WSW 17 20 9 11 1020.0 1020.0 0.0
26/08:30am 15.8 12.5 9.4 65 3.3 W 17 20 9 11 1020.0 - 0.0
26/08:00am 15.5 10.7 9.0 65 3.3 WSW 24 30 13 16 1019.8 - 0.0
26/07:30am 15.6 10.7 10.0 69 2.9 W 26 33 14 18 1019.4 - 0.0
26/07:00am 14.8 10.6 9.6 71 2.7 W 22 28 12 15 1019.3 - 0.0
26/06:30am 14.2 10.8 10.4 78 2.0 W 19 24 10 13 1019.4 - 0.0
26/06:00am 13.9 10.3 10.0 77 2.0 W 19 26 10 14 1019.1 1019.0 0.0
26/05:30am 13.9 10.1 9.8 76 2.1 W 20 26 11 14 1019.0 - 0.0
26/05:00am 14.3 10.1 9.8 74 2.3 W 22 28 12 15 1018.9 - 0.0
26/04:30am 14.3 9.3 9.6 73 2.4 W 26 30 14 16 1018.6 - 0.0
26/04:00am 14.3 9.3 9.6 73 2.4 W 26 32 14 17 1018.6 - 0.0
26/03:30am 14.3 9.4 9.8 74 2.3 W 26 33 14 18 1018.6 - 0.0
26/03:00am 15.8 9.5 7.6 58 4.1 W 30 37 16 20 1018.8 1018.8 0.0
26/02:30am 14.7 9.5 10.1 74 2.4 W 28 35 15 19 1019.0 - 0.0
26/02:00am 14.8 9.9 10.0 73 2.5 W 26 33 14 18 1019.6 - 0.0
26/01:30am 14.7 9.8 10.1 74 2.4 W 26 33 14 18 1019.7 - 0.0
26/01:00am 14.9 10.0 10.1 73 2.5 W 26 30 14 16 1020.0 - 0.0
26/12:30am 14.9 10.8 10.1 73 2.5 W 22 28 12 15 1020.2 - 0.0
26/12:00am 15.2 10.7 10.0 71 2.7 W 24 32 13 17 1020.3 1020.3 0.0
 
Date/Time
EDT
Temp
°C
App
Temp
°C
Dew
Point
Rel
Hum
%
Delta-T
°C
Wind Press
QNH
hPa
Press
MSL
hPa
Rain
since 9 am
mm
Dir
 
Spd
km/h
Gust
km/h
Spd
kts
Gust
kts
25/11:30pm 15.6 11.2 10.3 70 2.8 W 24 32 13 17 1020.5 - 0.0
25/11:00pm 15.7 11.4 10.6 71 2.7 W 24 32 13 17 1020.4 - 0.0
25/10:30pm 15.8 11.4 10.5 71 2.8 W 24 30 13 16 1020.4 - 0.0
25/10:00pm 15.8 11.4 10.3 70 2.9 W 24 30 13 16 1020.2 - 0.0
25/09:30pm 15.9 11.5 10.4 70 2.9 WSW 24 30 13 16 1019.9 - 0.0
25/09:00pm 16.1 11.7 10.4 69 3.0 WSW 24 30 13 16 1019.6 1019.5 0.0
25/08:30pm 16.5 10.0 10.5 67 3.2 SW 35 41 19 22 1019.0 - 0.0
25/08:00pm 16.6 9.8 10.8 68 3.1 SW 37 44 20 24 1018.7 - 0.0
25/07:30pm 16.7 9.1 10.5 67 3.3 SW 41 50 22 27 1018.1 - 0.0
25/07:00pm 16.9 8.7 9.8 63 3.7 SW 43 50 23 27 1017.5 - 0.0
25/06:30pm 16.9 8.2 9.8 63 3.7 SW 46 54 25 29 1017.0 - 0.0
25/06:00pm 16.7 7.5 9.6 63 3.7 SW 48 56 26 30 1016.9 1016.9 0.0
25/05:30pm 16.9 7.2 10.3 65 3.5 SW 52 61 28 33 1016.5 - 0.0
25/05:00pm 16.9 6.9 10.7 67 3.3 SW 54 61 29 33 1016.3 - 0.0
25/04:30pm 17.1 7.1 10.7 66 3.4 SW 54 63 29 34 1016.2 - 0.0
25/04:00pm 17.1 6.0 10.3 64 3.6 SW 59 70 32 38 1015.9 - 0.0
25/03:30pm 17.4 6.6 9.3 59 4.2 SW 56 65 30 35 1015.6 - 0.0
25/03:00pm 17.5 6.1 9.0 57 4.4 SW 59 72 32 39 1015.5 1015.5 0.0
25/02:30pm 17.5 6.5 9.0 57 4.4 SW 57 67 31 36 1015.6 - 0.0
25/02:00pm 17.5 7.0 9.0 57 4.4 SW 54 63 29 34 1015.7 - 0.0
25/01:30pm 17.3 6.8 9.0 58 4.3 SW 54 65 29 35 1015.6 - 0.0
25/01:00pm 17.7 7.4 9.5 58 4.3 SW 54 69 29 37 1015.8 - 0.0
25/12:30pm 17.5 8.5 9.0 57 4.4 SW 46 56 25 30 1016.0 - 0.0
25/12:00pm 17.8 7.6 8.5 54 4.8 SW 52 67 28 36 1015.6 1015.6 0.0
25/11:30am 17.6 6.7 7.2 50 5.2 SW 54 67 29 36 1015.2 - 0.0
25/11:00am 17.5 7.2 6.6 48 5.4 WSW 50 69 27 37 1015.1 - 0.0
25/10:36am 17.2 8.8 7.2 51 5.0 WSW 41 59 22 32 1015.1 - 0.0
25/10:30am 17.6 9.1 7.0 50 5.3 WSW 41 50 22 27 1015.1 - 0.0
25/10:00am 17.2 8.3 6.7 50 5.2 WSW 43 56 23 30 1014.7 - 0.0
25/09:30am 16.5 6.6 6.5 51 4.9 WSW 48 61 26 33 1014.3 - 0.0
25/09:00am 15.9 7.1 7.2 56 4.3 WSW 43 54 23 29 1014.2 1014.2 4.4
25/08:30am 15.2 6.5 7.5 60 3.8 WSW 43 54 23 29 1014.1 - 4.4
25/08:00am 14.9 6.3 8.3 64 3.3 WSW 43 54 23 29 1013.8 - 4.4
25/07:30am 14.5 6.1 8.8 68 2.9 WSW 43 56 23 30 1013.4 - 4.4
25/07:00am 14.0 5.6 8.9 71 2.6 WSW 43 54 23 29 1012.9 - 4.4
25/06:30am 14.0 5.5 9.1 72 2.5 WSW 44 57 24 31 1012.3 - 4.4
25/06:00am 14.2 5.2 10.2 77 2.1 WSW 48 61 26 33 1011.2 1011.1 4.4
25/05:30am 13.9 5.7 9.8 76 2.1 W 43 56 23 30 1010.8 - 4.4
25/05:00am 14.0 6.4 10.4 79 1.9 W 41 52 22 28 1010.3 - 4.4
25/04:30am 14.1 7.3 10.5 79 1.9 W 37 46 20 25 1009.9 - 4.4
25/04:00am 14.0 8.0 10.8 81 1.7 WSW 33 44 18 24 1009.7 - 4.4
25/03:30am 14.4 5.8 10.4 77 2.1 WSW 46 57 25 31 1009.1 - 4.4
25/03:00am 14.5 6.3 10.3 76 2.2 WSW 44 54 24 29 1009.4 1009.3 4.4
25/02:30am 13.6 5.2 10.9 84 1.4 W 46 57 25 31 1009.4 - 4.4
25/02:00am 14.1 4.4 11.7 85 1.3 WSW 54 67 29 36 1009.3 - 4.4
25/01:52am 14.0 3.1 12.3 89 0.9 WSW 61 80 33 43 1009.3 - 4.4
25/01:42am 14.6 3.7 13.5 93 0.6 SW 63 76 34 41 1008.8 - 4.4
25/01:31am 15.5 9.0 13.9 90 0.9 WSW 41 59 22 32 1009.1 - 4.4
25/01:30am 15.6 9.5 14.0 90 0.9 WSW 39 56 21 30 1009.1 - 4.4
25/01:00am 15.4 8.3 14.0 91 0.8 WSW 44 56 24 30 1008.4 - 4.4
25/12:43am 15.3 5.7 13.9 91 0.8 SW 57 76 31 41 1008.4 - 4.4
25/12:30am 15.9 6.3 15.0 94 0.5 SW 59 70 32 38 1008.1 - 4.2
25/12:00am 17.3 10.1 15.9 91 0.8 SW 48 76 26 41 1007.1 1006.8 4.0
 
Date/Time
EDT
Temp
°C
App
Temp
°C
Dew
Point
Rel
Hum
%
Delta-T
°C
Wind Press
QNH
hPa
Press
MSL
hPa
Rain
since 9 am
mm
Dir
 
Spd
km/h
Gust
km/h
Spd
kts
Gust
kts
24/11:50pm 17.9 12.3 16.4 91 0.9 SW 41 59 22 32 1007.1 - 4.0
24/11:46pm 18.6 13.5 16.8 89 1.1 WSW 39 48 21 26 1007.2 - 3.8
24/11:30pm 18.6 18.6 17.1 91 0.9 N 13 17 7 9 1006.6 - 3.8
24/11:00pm 18.2 19.0 17.4 95 0.5 NW 9 15 5 8 1007.5 - 3.4
24/10:30pm 17.7 18.0 16.9 95 0.5 N 11 20 6 11 1007.4 - 2.4
24/10:00pm 17.7 17.8 16.5 93 0.7 WNW 11 15 6 8 1007.0 - 1.0
24/09:30pm 18.1 15.8 16.6 91 0.9 SSW 24 33 13 18 1007.3 - 0.2
24/09:00pm 19.4 22.1 17.8 90 1.0 CALM 0 7 0 4 1005.9 1005.7 0.2
24/08:30pm 19.2 19.8 17.7 91 0.9 N 11 15 6 8 1005.6 - 0.2
24/08:00pm 19.4 19.1 17.4 88 1.2 NNE 15 20 8 11 1005.6 - 0.2
24/07:30pm 19.6 20.2 17.8 89 1.1 NNE 11 17 6 9 1006.0 - 0.2
24/07:00pm 19.8 21.2 17.7 88 1.3 NE 7 9 4 5 1006.4 - 0.2
24/06:30pm 19.9 21.4 18.0 89 1.2 NNE 7 11 4 6 1006.1 - 0.2
24/06:00pm 20.1 21.3 18.3 89 1.1 NNE 9 13 5 7 1006.2 1006.1 0.2
24/05:30pm 19.4 18.4 17.9 91 0.9 NNE 20 28 11 15 1006.1 - 0.2
24/05:00pm 19.2 16.9 17.7 91 0.9 NNE 26 30 14 16 1005.8 - 0.2
24/04:30pm 19.6 15.9 17.5 88 1.3 NNE 33 41 18 22 1006.2 - 0.2
24/04:00pm 19.9 15.5 17.5 86 1.5 NNE 37 48 20 26 1006.8 - 0.2
24/03:30pm 20.2 17.3 17.9 87 1.4 N 30 37 16 20 1007.7 - 0.0
24/03:00pm 20.3 19.3 18.0 87 1.4 N 20 32 11 17 1007.9 1007.9 0.0
24/02:30pm 20.2 18.1 18.1 88 1.3 NNE 26 32 14 17 1007.9 - 0.0
24/02:00pm 20.8 19.4 17.9 83 1.8 N 22 30 12 16 1007.3 - 0.0
24/01:30pm 20.2 18.7 17.6 85 1.6 NE 22 30 12 16 1008.1 - 0.0
24/01:00pm 20.3 16.6 17.4 83 1.8 NNE 33 41 18 22 1007.9 - 0.0
24/12:30pm 20.2 15.0 17.4 84 1.7 NNE 41 48 22 26 1008.0 - 0.0
24/12:00pm 20.1 15.2 17.2 83 1.8 NNE 39 46 21 25 1008.8 1008.8 0.0
24/11:30am 20.3 15.7 17.2 82 1.9 NNE 37 46 20 25 1009.4 - 0.0
24/11:00am 19.9 16.0 16.9 83 1.8 NE 33 39 18 21 1009.4 - 0.0
24/10:30am 19.6 17.0 16.8 84 1.7 NE 26 32 14 17 1009.1 - 0.0
24/10:00am 19.4 17.5 16.6 84 1.7 ENE 22 28 12 15 1009.0 - 0.0
24/09:30am 19.3 19.5 15.8 80 2.1 E 9 11 5 6 1009.2 - 0.0
24/09:00am 19.5 19.2 15.4 77 2.4 ESE 11 20 6 11 1010.0 1009.8 0.0
24/08:30am 19.4 18.5 13.8 70 3.2 SW 11 15 6 8 1010.1 - 0.0
24/08:00am 20.3 19.1 14.1 67 3.6 NNE 13 17 7 9 1010.2 - 0.0
24/07:30am 19.4 16.7 13.4 68 3.4 NNE 20 24 11 13 1010.3 - 0.0
24/07:00am 19.2 16.0 13.2 68 3.4 N 22 35 12 19 1010.9 - 0.0
24/06:30am 18.2 13.4 14.0 76 2.4 NNE 32 41 17 22 1010.9 - 0.0
24/06:00am 18.0 11.7 12.4 70 3.1 NNE 37 43 20 23 1011.2 1011.1 0.0
24/05:30am 18.0 12.6 14.9 82 1.8 NE 37 43 20 23 1011.5 - 0.0
24/05:00am 17.3 13.8 13.4 78 2.2 NNE 24 28 13 15 1011.7 - 0.0
24/04:30am 17.0 11.8 13.5 80 2.0 NE 33 39 18 21 1012.0 - 0.0
24/04:18am 16.9 12.5 12.8 77 2.3 NE 28 35 15 19 1011.4 - 0.0
24/04:00am 16.5 15.1 12.1 75 2.4 N 11 15 6 8 1012.4 - 0.0
24/03:30am 16.7 14.8 11.9 73 2.6 N 13 17 7 9 1012.6 - 0.0
24/03:00am 16.4 15.7 13.2 81 1.8 NE 9 19 5 10 1012.9 1012.9 0.0
24/02:30am 16.1 15.8 13.4 84 1.5 WSW 7 9 4 5 1013.9 - 0.0
24/02:00am 16.1 15.8 13.4 84 1.5 NW 7 7 4 4 1013.5 - 0.0
24/01:30am 16.1 15.0 13.0 82 1.7 WNW 11 15 6 8 1014.7 - 0.0
24/01:00am 15.7 14.7 13.4 86 1.3 N 11 13 6 7 1014.0 - 0.0
24/12:30am 15.9 15.0 13.6 86 1.3 WNW 11 13 6 7 1014.9 - 0.0
24/12:00am 16.0 14.6 13.5 85 1.4 W 13 15 7 8 1015.3 1015.3 0.0
 
Date/Time
EDT
Temp
°C
App
Temp
°C
Dew
Point
Rel
Hum
%
Delta-T
°C
Wind Press
QNH
hPa
Press
MSL
hPa
Rain
since 9 am
mm
Dir
 
Spd
km/h
Gust
km/h
Spd
kts
Gust
kts
23/11:30pm 16.6 15.4 14.1 85 1.4 W 13 15 7 8 1015.3 - 0.0
23/11:00pm 17.3 16.2 14.3 82 1.7 WSW 13 15 7 8 1015.4 - 0.0
23/10:30pm 17.4 16.4 13.5 78 2.2 SW 11 15 6 8 1015.8 - 0.0
23/10:00pm 17.8 16.2 13.8 77 2.3 SW 15 17 8 9 1015.5 - 0.0
23/09:30pm 17.7 15.5 13.3 75 2.5 SSW 17 19 9 10 1015.1 - 0.0
23/09:00pm 17.7 15.6 13.6 77 2.3 SSW 17 19 9 10 1014.8 1014.8 0.0
23/08:30pm 17.7 16.3 14.4 81 1.9 SSW 15 17 8 9 1014.7 - 0.0
23/08:00pm 17.6 17.3 14.5 82 1.8 SSW 9 11 5 6 1014.2 - 0.0
23/07:30pm 17.8 17.9 14.5 81 1.9 SSW 7 7 4 4 1014.0 - 0.0
23/07:00pm 18.0 18.3 14.5 80 2.0 SSW 6 7 3 4 1013.4 - 0.0
23/06:30pm 18.2 18.4 14.6 79 2.1 S 7 11 4 6 1013.0 - 0.0
23/06:00pm 18.7 18.8 14.4 76 2.5 S 7 9 4 5 1012.7 1012.6 0.0
23/05:30pm 19.1 19.1 14.3 73 2.8 S 7 9 4 5 1012.4 - 0.0
23/05:00pm 19.3 19.0 14.3 73 2.9 S 9 11 5 6 1012.3 - 0.0
23/04:30pm 19.9 19.3 14.6 71 3.1 S 11 13 6 7 1012.2 - 0.0
23/04:00pm 20.1 19.2 14.8 71 3.1 S 13 15 7 8 1012.2 - 0.0
23/03:30pm 20.4 18.8 15.1 71 3.1 S 17 19 9 10 1012.3 - 0.0
23/03:00pm 19.5 17.9 14.9 75 2.7 SSW 17 20 9 11 1012.4 1012.5 0.0
23/02:30pm 20.1 18.1 15.4 74 2.8 SSW 20 24 11 13 1012.3 - 0.0
23/02:00pm 19.9 16.8 15.5 76 2.6 SSW 26 30 14 16 1012.1 - 0.0

Other Formats:

Comma delimited format used in spreadsheet applications
http://www.bom.gov.au/fwo/IDN60801/IDN60801.94933.axf

JavaScript Object Notation format (JSON) in row-major order
http://www.bom.gov.au/fwo/IDN60801/IDN60801.94933.json